EW6468 Weather Reports


Display with metric or nautical units.
time (UTC)temp
F
wind
direction
speed
MPH
gust
MPH
rain 1hr
in
rain 24hr
in
rain mn
in
humidity
%
barometer
mb
20260505024518 74 169 1.0 4.0 0.00 0.00 0.00 63 1008.9
20260505023017 75 174 1.0 3.0 0.00 0.00 0.00 63 1009.0
20260505021514 75 167 1.0 5.0 0.00 0.00 0.00 63 1008.9
20260505020015 75 166 1.0 4.0 0.00 0.00 0.00 63 1008.7
20260505014529 75 161 1.0 3.0 0.00 0.00 0.00 63 1008.6
20260505013014 75 161 0.0 3.0 0.00 0.00 0.00 63 1008.5
20260505011513 75 135 0.0 2.0 0.00 0.00 0.00 62 1008.5
20260505010013 76 150 1.0 2.0 0.00 0.00 0.00 61 1008.5
20260505004513 76 159 1.0 5.0 0.00 0.00 0.00 60 1008.3
20260505003010 77 158 1.0 5.0 0.00 0.00 0.00 60 1008.3
20260505001510 77 192 1.0 3.0 0.00 0.00 0.00 59 1008.4
20260505000011 77 192 1.0 3.0 0.00 0.00 0.00 59 1008.6
20260504234508 77 177 2.0 5.0 0.00 0.00 0.00 58 1008.4
20260504233006 78 170 1.0 4.0 0.00 0.00 0.00 58 1008.5
20260504231505 78 180 1.0 4.0 0.00 0.00 0.00 58 1008.7
20260504230006 79 178 1.0 5.0 0.00 0.00 0.00 57 1008.8
20260504224508 80 180 1.0 4.0 0.00 0.00 0.00 56 1008.9
20260504223001 80 175 1.0 4.0 0.00 0.00 0.00 54 1009.0
20260504221603 80 190 1.0 4.0 0.00 0.00 0.00 54 1009.3
20260504221500 80 190 1.0 4.0 0.00 0.00 0.00 54 1009.3
20260504214559 81 167 2.0 5.0 0.00 0.00 0.00 53 1009.5
20260504213106 81 167 2.0 6.0 0.00 0.00 0.00 52 1009.5
20260504211644 81 180 0.0 3.0 0.00 0.00 0.00 53 1009.7
20260504210055 82 180 1.0 4.0 0.00 0.00 0.00 51 1009.9
20260504204552 81 167 2.0 4.0 0.00 0.00 0.00 52 1010.3
20260504203050 82 161 1.0 3.0 0.00 0.00 0.00 52 1010.4
20260504201547 82 261 1.0 5.0 0.00 0.00 0.00 52 1010.6
20260504200046 81 172 2.0 5.0 0.00 0.00 0.00 51 1010.9
20260504194549 81 172 2.0 4.0 0.00 0.00 0.00 51 1011.1
20260504193044 81 177 1.0 5.0 0.00 0.00 0.00 51 1011.3
20260504191544 81 241 1.0 3.0 0.00 0.00 0.00 53 1011.7
20260504190043 81 175 1.0 3.0 0.00 0.00 0.00 54 1011.9
20260504184545 80 209 1.0 4.0 0.00 0.00 0.00 53 1011.9
20260504183032 80 174 1.0 6.0 0.00 0.00 0.00 53 1012.0
20260504181535 80 114 1.0 3.0 0.00 0.00 0.00 53 1012.2
20260504180032 81 167 3.0 4.0 0.00 0.00 0.00 50 1012.4
20260504174525 80 175 1.0 6.0 0.00 0.00 0.00 52 1012.6
20260504173053 80 177 0.0 3.0 0.00 0.00 0.00 54 1012.9
20260504171546 80 165 1.0 4.0 0.00 0.00 0.00 54 1013.1
20260504081536 59 186 0.0 0.0 0.00 0.00 0.00 71 1014.6
20260504050006 64 186 0.0 0.0 0.00 0.00 0.00 61 1016.4
20260504044509 64 186 0.0 0.0 0.00 0.00 0.00 60 1016.6
20260504043010 65 186 0.0 0.0 0.00 0.00 0.00 60 1016.5
20260504041505 65 186 0.0 0.0 0.00 0.00 0.00 59 1016.4
20260504040005 66 186 0.0 0.0 0.00 0.00 0.00 58 1016.6
20260504034505 67 186 0.0 0.0 0.00 0.00 0.00 57 1016.5
20260504033004 67 186 0.0 0.0 0.00 0.00 0.00 56 1016.6
20260504031507 68 186 0.0 1.0 0.00 0.00 0.00 56 1016.6
20260504030004 68 186 0.0 2.0 0.00 0.00 0.00 56 1016.4